| time (UTC) | temp C | wind direction | speed KPH | gust KPH | rain 1hr cm | rain 24hr cm | rain mn cm | humidity % | barometer mb |
| 20260504141332 | 13 | 120 | 4.8 | 8.0 | 0.00 | 0.00 | 0.00 | 95 | 1022.0 |
| 20260504140331 | 15 | 120 | 4.8 | 8.0 | 0.00 | 0.00 | 0.00 | 95 | 1022.0 |
| 20260504130327 | 12 | 109 | 1.6 | 6.4 | 0.00 | 0.00 | 0.00 | 97 | 1021.0 |
| 20260504110318 | 13 | 130 | 1.6 | 4.8 | 0.00 | 0.00 | 0.00 | 97 | 1020.0 |
| 20260504100314 | 13 | 136 | 1.6 | 4.8 | 0.00 | 0.00 | 0.00 | 97 | 1020.0 |
| 20260504081306 | 14 | 117 | 1.6 | 1.6 | 0.00 | 0.00 | 0.00 | 98 | 1019.0 |
| 20260504080305 | 12 | 117 | 1.6 | 3.2 | 0.00 | 0.00 | 0.00 | 98 | 1019.0 |
| 20260504070301 | 13 | 106 | 1.6 | 4.8 | 0.00 | 0.00 | 0.00 | 99 | 1020.0 |
| 20260504050252 | 13 | 124 | 1.6 | 4.8 | 0.00 | 0.00 | 0.00 | 98 | 1021.0 |
| 20260504045251 | 12 | 124 | 1.6 | 4.8 | 0.00 | 0.00 | 0.00 | 98 | 1021.0 |
| 20260504044250 | 10 | 124 | 3.2 | 4.8 | 0.00 | 0.00 | 0.00 | 98 | 1021.0 |
| 20260504043250 | 14 | 121 | 1.6 | 4.8 | 0.00 | 0.00 | 0.00 | 98 | 1021.0 |
| 20260504042249 | 12 | 121 | 1.6 | 4.8 | 0.00 | 0.00 | 0.00 | 98 | 1022.0 |
| 20260504041248 | 12 | 121 | 1.6 | 4.8 | 0.00 | 0.00 | 0.00 | 98 | 1022.0 |
| 20260504040248 | 11 | 121 | 1.6 | 4.8 | 0.00 | 0.00 | 0.00 | 98 | 1022.0 |
| 20260504035247 | 9 | 121 | 3.2 | 4.8 | 0.00 | 0.00 | 0.00 | 98 | 1022.0 |
| 20260504034246 | 15 | 126 | 1.6 | 4.8 | 0.00 | 0.00 | 0.00 | 98 | 1022.0 |
| 20260504033246 | 13 | 126 | 1.6 | 4.8 | 0.00 | 0.00 | 0.00 | 98 | 1022.0 |
| 20260504032245 | 11 | 126 | 3.2 | 4.8 | 0.00 | 0.00 | 0.00 | 98 | 1022.0 |
| 20260504031244 | 13 | 126 | 1.6 | 4.8 | 0.00 | 0.00 | 0.00 | 98 | 1022.0 |
| 20260504030244 | 12 | 126 | 3.2 | 4.8 | 0.00 | 0.00 | 0.00 | 98 | 1022.0 |
| 20260504025243 | 15 | 126 | 3.2 | 4.8 | 0.00 | 0.00 | 0.00 | 98 | 1022.0 |
| 20260504024242 | 15 | 126 | 3.2 | 4.8 | 0.00 | 0.00 | 0.00 | 98 | 1022.0 |
| 20260504023241 | 14 | 120 | 1.6 | 6.4 | 0.00 | 0.00 | 0.00 | 98 | 1022.0 |
| 20260504022240 | 12 | 120 | 3.2 | 6.4 | 0.00 | 0.00 | 0.00 | 98 | 1021.0 |
| 20260504021239 | 14 | 120 | 1.6 | 6.4 | 0.00 | 0.00 | 0.00 | 98 | 1021.0 |
| 20260504020238 | 12 | 120 | 3.2 | 6.4 | 0.00 | 0.00 | 0.00 | 98 | 1021.0 |
| 20260504015238 | 14 | 120 | 1.6 | 6.4 | 0.00 | 0.00 | 0.00 | 98 | 1021.0 |
| 20260504014237 | 12 | 120 | 3.2 | 6.4 | 0.00 | 0.00 | 0.00 | 98 | 1021.0 |
| 20260504013236 | 14 | 112 | 4.8 | 8.0 | 0.00 | 0.00 | 0.00 | 98 | 1021.0 |
| 20260504012235 | 12 | 112 | 4.8 | 8.0 | 0.00 | 0.00 | 0.00 | 98 | 1021.0 |
| 20260504011235 | 11 | 112 | 4.8 | 8.0 | 0.00 | 0.00 | 0.00 | 98 | 1021.0 |
| 20260504010234 | 9 | 112 | 4.8 | 8.0 | 0.00 | 0.00 | 0.00 | 98 | 1021.0 |
| 20260504005233 | 15 | 112 | 4.8 | 8.0 | 0.00 | 0.00 | 0.00 | 98 | 1021.0 |
| 20260504004232 | 13 | 112 | 4.8 | 8.0 | 0.00 | 0.00 | 0.00 | 98 | 1021.0 |
| 20260504003232 | 12 | 112 | 4.8 | 8.0 | 0.00 | 0.00 | 0.00 | 98 | 1021.0 |